Date String (YYYY-MM-DD hh:mm:ss) UTC,Instrument flags,Ambient pressure (hPa),Sample flow (lpm),Bypass flow (lpm),Sample temperature (°C),Ambient temperature (°C),ASC tube jacket temperature (°C),LED temperature (°C),Box temperature (°C),Sample RH (%),Span deviation,Mass concentration (μg/m³),Mass concentration (μg/m³),Mass concentration (μg/m³)
DateTimeUTC,F1_M11,P_M11,Q1_M11,Q2_M11,T1_M11,T2_M11,T3_M11,T4_M11,T5_M11,U1_M11,ZSPAN_M11,X0_M11,X2_M11,X1_M11
2022-09-20 11:00:00,,0827.5,4.99,0.00,30.3,28.9,00.0,39.1,32.1,12.4,0000.0,0006.69,0002.03,0001.70
2022-09-20 11:01:00,,0827.5,5.01,0.00,30.3,28.9,00.0,39.1,32.1,12.5,0000.0,0007.68,0002.01,0001.69
2022-09-20 11:02:00,,0827.5,5.00,0.00,30.4,28.9,00.0,39.1,32.1,12.4,0000.0,0007.46,0002.02,0001.69
2022-09-20 11:03:00,,0827.5,5.00,0.00,30.4,28.9,00.0,39.1,32.1,12.4,0000.0,0007.37,0002.00,0001.69
2022-09-20 11:04:00,,0827.5,5.00,0.00,30.4,28.9,00.0,39.1,32.1,12.4,0000.0,0007.38,0001.97,0001.68
2022-09-20 11:05:00,,0827.5,5.01,0.00,30.4,28.9,00.0,39.1,32.1,12.5,0000.0,0007.62,0001.96,0001.68
2022-09-20 11:06:00,,0827.5,4.98,0.00,30.4,29.0,00.0,39.1,32.1,12.6,0000.0,0007.56,0001.93,0001.69
2022-09-20 11:07:00,,0827.5,5.01,0.00,30.4,29.0,00.0,39.2,32.2,12.6,0000.0,0006.82,0001.92,0001.69
2022-09-20 11:08:00,,0827.5,4.99,0.00,30.4,29.0,00.0,39.2,32.2,12.7,0000.0,0006.58,0001.91,0001.69
2022-09-20 11:09:00,,0827.5,5.01,0.00,30.4,29.0,00.0,39.2,32.2,12.7,0000.0,0005.93,0001.91,0001.69
2022-09-20 11:10:00,,0827.5,4.99,0.00,30.4,29.0,00.0,39.2,32.2,12.7,0000.0,0005.21,0001.93,0001.70
2022-09-20 11:11:00,,0827.5,5.01,0.00,30.4,29.1,00.0,39.2,32.2,12.7,0000.0,0005.82,0001.93,0001.71
2022-09-20 11:12:00,,0827.5,5.00,0.00,30.5,29.1,00.0,39.2,32.2,12.7,0000.0,0004.53,0001.97,0001.72
2022-09-20 11:13:00,,0827.5,5.01,0.00,30.5,29.1,00.0,39.2,32.2,12.7,0000.0,0004.54,0001.99,0001.72
2022-09-20 11:14:00,,0827.5,5.00,0.00,30.5,29.1,00.0,39.2,32.2,12.8,0000.0,0004.55,0002.01,0001.73
2022-09-20 11:15:00,,0827.5,5.00,0.00,30.5,29.1,00.0,39.2,32.2,12.9,0000.0,0004.55,0002.03,0001.73
2022-09-20 11:16:00,,0827.5,5.00,0.00,30.5,29.1,00.0,39.3,32.3,12.9,0000.0,0004.00,0002.00,0001.74
2022-09-20 11:17:00,,0827.5,5.00,0.00,30.5,29.1,00.0,39.3,32.3,12.6,0000.0,0004.53,0002.04,0001.74
2022-09-20 11:18:00,,0827.5,5.00,0.00,30.5,29.1,00.0,39.3,32.3,12.7,0000.0,0004.71,0002.05,0001.74
2022-09-20 11:19:00,,0827.5,4.98,0.00,30.5,29.1,00.0,39.3,32.3,12.7,0000.0,0004.57,0002.06,0001.75
2022-09-20 11:20:00,,0827.5,5.01,0.00,30.5,29.1,00.0,39.3,32.3,12.7,0000.0,0004.46,0002.03,0001.75
2022-09-20 11:21:00,,0827.6,4.98,0.00,30.5,29.1,00.0,39.3,32.3,12.7,0000.0,0004.38,0002.01,0001.74
2022-09-20 11:22:00,,0827.5,5.00,0.00,30.6,29.2,00.0,39.3,32.3,12.7,0000.0,0003.78,0002.01,0001.74
2022-09-20 11:23:00,,0827.5,5.00,0.00,30.6,29.2,00.0,39.3,32.3,12.8,0000.0,0003.23,0002.02,0001.74
2022-09-20 11:24:00,,0827.5,5.00,0.00,30.6,29.2,00.0,39.3,32.3,12.8,0000.0,0003.20,0002.02,0001.75
2022-09-20 11:25:00,,0827.5,5.01,0.00,30.6,29.2,00.0,39.3,32.4,12.8,0000.0,0004.30,0002.00,0001.76
2022-09-20 11:26:00,,0827.7,4.99,0.00,30.6,29.2,00.0,39.3,32.3,12.8,0000.0,0004.39,0002.00,0001.77
2022-09-20 11:27:00,,0827.6,5.02,0.00,30.6,29.2,00.0,39.3,32.4,12.8,0000.0,0004.41,0002.01,0001.78
2022-09-20 11:28:00,,0827.7,4.99,0.00,30.6,29.2,00.0,39.4,32.4,12.7,0000.0,0004.04,0002.00,0001.78
2022-09-20 11:29:00,,0827.5,5.01,0.00,30.6,29.2,00.0,39.4,32.4,12.8,0000.0,0003.66,0002.00,0001.79
2022-09-20 11:30:00,,0827.6,4.99,0.00,30.6,29.2,00.0,39.4,32.4,12.7,0000.0,0003.67,0002.02,0001.81
2022-09-20 11:31:00,,0827.6,5.01,0.00,30.6,29.2,00.0,39.4,32.4,12.6,0000.0,0003.75,0002.05,0001.82
2022-09-20 11:32:00,,0827.6,5.00,0.00,30.6,29.2,00.0,39.4,32.4,12.5,0000.0,0003.83,0002.05,0001.82
2022-09-20 11:33:00,,0827.6,5.01,0.00,30.6,29.2,00.0,39.4,32.4,12.4,0000.0,0003.87,0002.05,0001.82
2022-09-20 11:34:00,,0827.6,4.99,0.00,30.7,29.2,00.0,39.4,32.4,12.7,0000.0,0003.80,0002.03,0001.81
2022-09-20 11:35:00,,0827.6,5.00,0.00,30.7,29.2,00.0,39.4,32.4,12.7,0000.0,0004.69,0002.10,0001.82
2022-09-20 11:36:00,,0827.6,5.00,0.00,30.7,29.2,00.0,39.4,32.4,12.6,0000.0,0004.43,0002.12,0001.81
2022-09-20 11:37:00,,0827.7,4.99,0.00,30.7,29.2,00.0,39.4,32.4,12.5,0000.0,0004.45,0002.14,0001.82
2022-09-20 11:38:00,,0827.7,5.00,0.00,30.7,29.3,00.0,39.4,32.4,12.5,0000.0,0004.45,0002.15,0001.84
2022-09-20 11:39:00,,0827.7,4.99,0.00,30.7,29.3,00.0,39.4,32.4,12.5,0000.0,0004.43,0002.16,0001.85
2022-09-20 11:40:00,,0827.7,5.01,0.00,30.7,29.3,00.0,39.4,32.4,12.5,0000.0,0004.43,0002.16,0001.85
2022-09-20 11:41:00,,0827.7,5.00,0.00,30.7,29.3,00.0,39.4,32.4,12.6,0000.0,0004.43,0002.15,0001.84
2022-09-20 11:42:00,,0827.7,4.98,0.00,30.7,29.3,00.0,39.5,32.5,12.7,0000.0,0004.59,0002.17,0001.85
2022-09-20 11:43:00,,0827.7,5.01,0.00,30.7,29.3,00.0,39.5,32.5,12.7,0000.0,0005.59,0002.20,0001.87
2022-09-20 11:44:00,,0827.7,4.99,0.00,30.7,29.3,00.0,39.5,32.5,12.7,0000.0,0005.59,0002.20,0001.89
2022-09-20 11:45:00,,0827.7,5.01,0.00,30.7,29.3,00.0,39.5,32.5,12.7,0000.0,0005.53,0002.18,0001.90
2022-09-20 11:46:00,,0827.6,4.99,0.00,30.7,29.4,00.0,39.5,32.5,12.8,0000.0,0004.67,0002.12,0001.90
2022-09-20 11:47:00,,0827.7,5.01,0.00,30.8,29.4,00.0,39.5,32.5,12.7,0000.0,0004.13,0002.12,0001.91
2022-09-20 11:48:00,,0827.6,4.99,0.00,30.8,29.4,00.0,39.5,32.5,12.7,0000.0,0003.90,0002.14,0001.91
2022-09-20 11:49:00,,0827.7,5.01,0.00,30.8,29.4,00.0,39.5,32.5,12.6,0000.0,0004.06,0002.17,0001.90
2022-09-20 11:50:00,,0827.7,4.99,0.00,30.8,29.4,00.0,39.5,32.5,12.8,0000.0,0004.45,0002.17,0001.90
2022-09-20 11:51:00,,0827.7,5.00,0.00,30.8,28.6,00.0,39.5,32.5,12.8,0000.0,0005.37,0002.17,0001.89
2022-09-20 11:52:00,,0827.7,5.01,0.00,30.7,27.2,00.0,39.4,32.4,12.5,0000.0,0005.43,0002.17,0001.89
2022-09-20 11:53:00,,0827.7,5.00,0.00,30.7,27.0,00.0,39.4,32.3,12.5,0000.0,0005.43,0002.16,0001.89
2022-09-20 11:54:00,,0827.7,5.01,0.00,30.6,27.2,00.0,39.3,32.0,12.6,0000.0,0004.38,0002.17,0001.90
2022-09-20 11:55:00,,0827.7,5.00,0.00,30.5,27.5,00.0,39.3,32.0,12.7,0000.0,0004.38,0002.22,0001.90
2022-09-20 11:56:00,,0827.7,5.00,0.00,30.4,27.7,00.0,39.3,32.0,12.8,0000.0,0004.46,0002.27,0001.91
2022-09-20 11:57:00,,0827.7,5.00,0.00,30.4,28.0,00.0,39.2,32.0,12.9,0000.0,0004.58,0002.30,0001.91
2022-09-20 11:58:00,,0827.7,5.00,0.00,30.3,28.1,00.0,39.2,32.0,13.0,0000.0,0004.59,0002.32,0001.91
2022-09-20 11:59:00,,0827.7,5.00,0.00,30.3,28.3,00.0,39.2,32.0,13.0,0000.0,0004.47,0002.30,0001.90
